Fort Campbell, KY

8:21 PM CST on February 07, 2016 (GMT -0600)
Campbell Army Air Field

Weather History for KHOP - June, 2013

Change the Weather History Date:

Saturday, June 29, 2013

  Actual Average (KCKV) Record (KCKV)
Temperature  
Mean Temperature 74 °F -  
Max Temperature 83 °F - - ()
Min Temperature 65 °F - - ()
Degree Days  
Heating Degree Days 0    
Month to date heating degree days  
Since 1 July heating degree days  
Cooling Degree Days 9    
Month to date cooling degree days  
Growing Degree Days 24 (Base 50)    
Moisture  
Dew Point 62 °F    
Average Humidity 66    
Maximum Humidity 88    
Minimum Humidity 50    
Precipitation  
Precipitation 0.00 in - - ()
Month to date precipitation  
Sea Level Pressure  
Sea Level Pressure 29.68 in    
Wind  
Wind Speed 8 mph (West)    
Max Wind Speed 16 mph    
Max Gust Speed 21 mph    
Visibility 10 miles    
Events Thunderstorm    
T = Trace of Precipitation, MM = Missing Value Source: NWS Daily Summary

Daily Weather History Graph

Daily Weather History Graph

Search for Another Location

Airport or City:

Trip Planner

Search our weather history database for the weather conditions in past years. The results will help you decide how hot, cold, wet, or windy it might be!

Date:

Astronomy

Jun. 29, 2013 Rise Set
Actual Time 5:34 AM CDT 8:12 PM CDT
Civil Twilight 5:03 AM CDT 8:43 PM CDT
Nautical Twilight 4:25 AM CDT 9:21 PM CDT
Astronomical Twilight 3:43 AM CDT 10:03 PM CDT
Moon No Moon Rise 12:33 PM CDT (6/29)
Length of Visible Light 15h 39m
Length of Day
14h 38m
Waning Gibbous, 55% of the Moon is Illuminated
Jun 29
Waning Gibbous
Jun 29
Last Quarter
Jul 8
New
Jul 15
First Quarter
Jul 22
Full

Hourly Weather History & Observations

Time (CDT) Temp. Heat Index Dew Point Humidity Pressure Visibility Wind Dir Wind Speed Gust Speed Precip Events Conditions
12:58 AM 68.5 °F - 61.5 °F 78% 29.70 in 10.0 mi SW 5.8 mph - N/A   Clear
1:58 AM 67.1 °F - 61.7 °F 83% 29.69 in 10.0 mi West 4.6 mph - N/A   Clear
2:58 AM 66.9 °F - 61.2 °F 82% 29.67 in 10.0 mi West 5.8 mph - N/A   Clear
3:58 AM 67.8 °F - 60.4 °F 77% 29.67 in 10.0 mi WSW 6.9 mph - N/A   Clear
4:58 AM 65.8 °F - 61.9 °F 87% 29.68 in 10.0 mi WSW 6.9 mph - N/A   Clear
5:58 AM 66.0 °F - 62.4 °F 88% 29.69 in 10.0 mi West 6.9 mph - N/A   Clear
6:58 AM 68.9 °F - 62.1 °F 79% 29.69 in 10.0 mi West 6.9 mph - N/A   Clear
7:58 AM 72.9 °F - 63.1 °F 71% 29.69 in 10.0 mi West 5.8 mph - N/A   Clear
8:58 AM 76.3 °F - 62.8 °F 63% 29.69 in 10.0 mi WNW 11.5 mph - N/A   Clear
9:58 AM 79.0 °F - 63.5 °F 59% 29.68 in 10.0 mi NW 9.2 mph - N/A   Clear
10:58 AM 80.4 °F 81.5 °F 62.1 °F 53% 29.68 in 10.0 mi WNW 11.5 mph - N/A   Clear
11:58 AM 80.8 °F 82.2 °F 63.5 °F 56% 29.68 in 10.0 mi West 13.8 mph 18.4 mph N/A   Scattered Clouds
12:33 PM 82.4 °F 83.4 °F 62.6 °F 51% 29.69 in 10.0 mi West 16.1 mph 20.7 mph N/A   Partly Cloudy
12:58 PM 82.4 °F 83.4 °F 62.4 °F 51% 29.68 in 10.0 mi WNW 16.1 mph - N/A   Partly Cloudy
1:58 PM 82.2 °F 83.5 °F 63.3 °F 53% 29.67 in 10.0 mi West 12.7 mph 19.6 mph N/A   Scattered Clouds
2:58 PM 82.4 °F 83.4 °F 62.4 °F 51% 29.66 in 10.0 mi West 9.2 mph - N/A   Scattered Clouds
3:58 PM 83.5 °F 84.5 °F 62.8 °F 50% 29.65 in 10.0 mi WSW 15.0 mph - N/A   Partly Cloudy
4:58 PM 83.8 °F 84.9 °F 63.1 °F 50% 29.64 in 10.0 mi West 12.7 mph - N/A   Clear
5:58 PM 82.9 °F 83.8 °F 62.8 °F 50% 29.63 in 10.0 mi WSW 12.7 mph - N/A   Partly Cloudy
6:58 PM 80.6 °F 81.8 °F 62.8 °F 54% 29.64 in 10.0 mi West 8.1 mph - N/A   Partly Cloudy
7:58 PM 77.9 °F - 64.6 °F 63% 29.64 in 10.0 mi West 6.9 mph - N/A   Partly Cloudy
8:58 PM 71.8 °F - 58.8 °F 64% 29.68 in 10.0 mi North 9.2 mph - N/A Thunderstorm Mostly Cloudy
9:58 PM 68.4 °F - 59.4 °F 73% 29.71 in 10.0 mi WSW 6.9 mph - N/A   Partly Cloudy
10:18 PM 68.0 °F - 59.0 °F 73% 29.72 in 10.0 mi WSW 4.6 mph - N/A   Light Drizzle
10:27 PM 68.0 °F - 59.0 °F 73% 29.72 in 10.0 mi SW 5.8 mph - N/A   Partly Cloudy
10:58 PM 67.3 °F - 59.7 °F 77% 29.71 in 10.0 mi South 3.5 mph - 0.00 in   Overcast
11:58 PM 66.7 °F - 60.3 °F 80% 29.70 in 10.0 mi Calm Calm - N/A   Clear